Flag for Colombia Weather past 2 weeks in Santa Marta, Colombia

Now
91 °F

Scattered clouds.


Feels Like: 108 °F
Forecast: N/A
Wind: 9 mph from North

Location: Barranquilla / Ernestocortissoz

Current Time: Oct 23, 2014 at 3:38:20 PM

Latest Report: Oct 23, 2014 at 3:00 PM


Visibility: N/A

Pressure: 29.77 "Hg

Humidity: 67%

Dew point: 79 °F

Location of Santa MartaLocation

Historic Weather in Santa Marta — Graph

°F

Santa Marta temperature yesterday

Maximum temperature yesterday: 93 °F (at 12:00 PM)
Minimum temperature yesterday: 77 °F (at 5:00 AM)
Average temperature yesterday: 84 °F

Past Weeks' High & Low Weather Summary

 TemperatureHumidityPressure
High93 °F (Oct 13, 1:00 PM)100% (Oct 8, 4:00 PM)29.95 "Hg (Oct 8, 4:00 PM)
Low72 °F (Oct 19, 7:00 PM)63% (Oct 8, 2:00 PM)29.76 "Hg (Oct 20, 4:00 PM)
Average82 °F88%29.85 "Hg
* Reported Oct 8 2:00 PM — Oct 23 2:00 PM, Santa Marta, Weather by CustomWeather, © 2014

Note: Actual official high and low records may vary slightly from our data, if they occured in-between our weather recording intervals... More about our weather records

Advertising

Santa Marta weather history for previous 24 hours

 ConditionsComfort  
Time TempWeatherWind HumidityBarometerVisibility
2:00 PM
Oct 23
91 °FScattered clouds.6 mph67%29.79 "HgN/A
1:00 PM90 °FScattered clouds.7 mph71%29.82 "HgN/A
12:00 PM93 °FScattered clouds.5 mph67%29.84 "HgN/A
11:00 AM91 °FScattered clouds.5 mph71%29.87 "HgN/A
10:00 AM90 °FScattered clouds.5 mph75%29.89 "HgN/A
9:00 AM86 °FScattered clouds.7 mph79%29.88 "HgN/A
8:00 AM84 °FScattered clouds.No wind84%29.87 "HgN/A
7:00 AM79 °FFog.No wind100%29.84 "Hg1 mi
6:00 AM77 °FFog.No wind100%29.84 "Hg1 mi
5:00 AM79 °FPassing clouds.No wind94%29.82 "HgN/A
4:00 AM79 °FPassing clouds.No wind94%29.82 "HgN/A
3:00 AM79 °FPassing clouds.No wind94%29.82 "HgN/A
2:00 AM79 °FPassing clouds.No wind94%29.83 "HgN/A
1:00 AM79 °FPassing clouds.6 mph94%29.84 "HgN/A
12:00 AM81 °FPassing clouds.5 mph94%29.86 "HgN/A
11:00 PM
Oct 22
82 °FPassing clouds.5 mph89%29.87 "HgN/A
10:00 PM82 °FPassing clouds.5 mph94%29.88 "HgN/A
9:00 PM82 °FPassing clouds.No wind94%29.88 "HgN/A
8:00 PM82 °FPassing clouds.5 mph89%29.85 "HgN/A
7:00 PM82 °FPassing clouds.5 mph89%29.81 "HgN/A
6:00 PM84 °FPassing clouds.5 mph84%29.80 "HgN/A
5:00 PM84 °FScattered clouds.5 mph84%29.79 "HgN/A
4:00 PM86 °FScattered clouds.6 mph84%29.78 "HgN/A
3:00 PM86 °FScattered clouds.7 mph84%29.77 "HgN/A
Weather by CustomWeather, © 2014

See weather overviewHow to use our weather pages